Tracking 31027 objects as of 19-Jul-2025
HD Live streaming from Space Station
objects crossing your sky now

SL-14 DEB

Track SL-14 DEB now!
10-day predictions


NORAD ID: 45303
Int'l Code: 1991-056AR
Perigee: 784.1 km
Apogee: 979.6 km
Inclination: 82.6 °
Period: 102.5 minutes
Semi major axis: 7252 km
RCS: Unknown
Launch date: August 15, 1991
Source: Commonwealth of Independent States (former USSR) (CIS)
Launch site: PLESETSK MISSILE AND SPACE COMPLEX (PKMTR)

Note: This is SATELLITE DEBRIS
Your satellite tracking list
IRIDIUM 33 DEB
Track 1 satellite(s)




NASA's NSSDC Master Catalog

Two Line Element Set (TLE):
1 45303U 91056AR  25199.61022141  .00011829  00000-0  66937-2 0  9993
2 45303  82.6086 259.1438 0134775  67.0972 294.4362 14.05532187269550
Source of the keplerian elements: AFSPC